"Sample Date","Sample Time","Sample Value","Units","Flow Rate","Sample Interval","Number Channels","Micron Size 0","Counts/Channel 0","Micron Size 1","Counts/Channel 1","Micron Size 2","Counts/Channel 2","Micron Size 3","Counts/Channel 3","Micron Size 4","Counts/Channel 4","Micron Size 5","Counts/Channel 5","Micron Size 6","Counts/Channel 6","Micron Size 7","Counts/Channel 7","Micron Size 8","Counts/Channel 8","Micron Size 9","Counts/Channel 9","Micron Size 10","Counts/Channel 10","Micron Size 11","Counts/Channel 11","Micron Size 12","Counts/Channel 12","Micron Size 13","Counts/Channel 13","Micron Size 14","Counts/Channel 14","Micron Size 15","Counts/Channel 15","Micron Size 16","Counts/Channel 16","Micron Size 17","Counts/Channel 17","Micron Size 18","Counts/Channel 18","Micron Size 19","Counts/Channel 19","Micron Size 20","Counts/Channel 20","Micron Size 21","Counts/Channel 21","Micron Size 22","Counts/Channel 22","Micron Size 23","Counts/Channel 23","Micron Size 24","Counts/Channel 24","Micron Size 25","Counts/Channel 25","Micron Size 26","Counts/Channel 26","Micron Size 27","Counts/Channel 27","Micron Size 28","Counts/Channel 28","Micron Size 29","Counts/Channel 29","Micron Size 30","Counts/Channel 30","Micron Size 31","Counts/Channel 31"
"03/08/08","16:00:02",15076.000,"cc",28210.098,6.00,6,0.100,11472.000,0.200,2676.000,0.300,362.000,0.500,390.000,1.000,176.000,5.000,0
"03/08/08","16:00:08",14923.000,"cc",28361.729,6.00,6,0.100,11343.000,0.200,2614.000,0.300,383.000,0.500,393.000,1.000,190.000,5.000,0
"03/08/08","16:00:14",15058.000,"cc",28365.990,6.00,6,0.100,11446.000,0.200,2702.000,0.300,344.000,0.500,398.000,1.000,168.000,5.000,0
"03/08/08","16:00:20",15089.000,"cc",28315.281,6.00,6,0.100,11568.000,0.200,2618.000,0.300,378.000,0.500,351.000,1.000,174.000,5.000,0
"03/08/08","16:00:26",15439.000,"cc",28309.645,6.00,6,0.100,11788.000,0.200,2652.000,0.300,377.000,0.500,438.000,1.000,184.000,5.000,0
"03/08/08","16:00:32",14993.000,"cc",28298.648,6.00,6,0.100,11489.000,0.200,2639.000,0.300,359.000,0.500,336.000,1.000,170.000,5.000,0
"03/08/08","16:00:38",15032.000,"cc",28299.658,6.00,6,0.100,11495.000,0.200,2567.000,0.300,356.000,0.500,424.000,1.000,190.000,5.000,0
"03/08/08","16:00:44",15147.000,"cc",28359.199,6.00,6,0.100,11485.000,0.200,2742.000,0.300,366.000,0.500,373.000,1.000,181.000,5.000,0
"03/08/08","16:00:50",15099.000,"cc",28331.156,6.00,6,0.100,11478.000,0.200,2737.000,0.300,345.000,0.500,361.000,1.000,178.000,5.000,0
"03/08/08","16:00:56",15334.000,"cc",28383.154,6.00,6,0.100,11601.000,0.200,2751.000,0.300,400.000,0.500,408.000,1.000,174.000,5.000,0
"03/08/08","16:01:02",15247.000,"cc",28270.125,6.00,6,0.100,11557.000,0.200,2685.000,0.300,382.000,0.500,443.000,1.000,180.000,5.000,0
"03/08/08","16:01:08",14908.000,"cc",28322.664,6.00,6,0.100,11410.000,0.200,2537.000,0.300,351.000,0.500,415.000,1.000,195.000,5.000,0
"03/08/08","16:01:14",15346.000,"cc",28283.621,6.00,6,0.100,11584.000,0.200,2757.000,0.300,391.000,0.500,420.000,1.000,194.000,5.000,0
"03/08/08","16:01:20",15153.000,"cc",28299.887,6.00,6,0.100,11571.000,0.200,2641.000,0.300,354.000,0.500,417.000,1.000,170.000,5.000,0
"03/08/08","16:01:26",15188.000,"cc",28314.662,6.00,6,0.100,11522.000,0.200,2708.000,0.300,358.000,0.500,409.000,1.000,191.000,5.000,0
"03/08/08","16:01:32",15258.000,"cc",28302.242,6.00,6,0.100,11555.000,0.200,2721.000,0.300,359.000,0.500,429.000,1.000,194.000,5.000,0
"03/08/08","16:01:38",15551.000,"cc",28305.008,6.00,6,0.100,11738.000,0.200,2807.000,0.300,396.000,0.500,425.000,1.000,185.000,5.000,0
"03/08/08","16:01:44",15197.000,"cc",28318.287,6.00,6,0.100,11429.000,0.200,2706.000,0.300,423.000,0.500,448.000,1.000,191.000,5.000,0
"03/08/08","16:01:50",14994.000,"cc",28336.785,6.00,6,0.100,11412.000,0.200,2658.000,0.300,346.000,0.500,388.000,1.000,190.000,5.000,0
"03/08/08","16:01:56",15113.000,"cc",28337.762,6.00,6,0.100,11498.000,0.200,2700.000,0.300,374.000,0.500,357.000,1.000,184.000,5.000,0
"03/08/08","16:02:02",15384.000,"cc",28270.137,6.00,6,0.100,11686.000,0.200,2748.000,0.300,372.000,0.500,392.000,1.000,186.000,5.000,0
"03/08/08","16:02:08",15120.000,"cc",28365.346,6.00,6,0.100,11509.000,0.200,2671.000,0.300,387.000,0.500,379.000,1.000,174.000,5.000,0
"03/08/08","16:02:14",15167.000,"cc",28324.594,6.00,6,0.100,11480.000,0.200,2817.000,0.300,328.000,0.500,365.000,1.000,177.000,5.000,0
"03/08/08","16:02:20",15086.000,"cc",28349.316,6.00,6,0.100,11546.000,0.200,2702.000,0.300,336.000,0.500,344.000,1.000,158.000,5.000,0
"03/08/08","16:02:26",15361.000,"cc",28384.701,6.00,6,0.100,11678.000,0.200,2736.000,0.300,379.000,0.500,394.000,1.000,174.000,5.000,0
"03/08/08","16:02:32",15221.000,"cc",28341.520,6.00,6,0.100,11495.000,0.200,2772.000,0.300,366.000,0.500,392.000,1.000,196.000,5.000,0
"03/08/08","16:02:38",15286.000,"cc",28208.113,6.00,6,0.100,11702.000,0.200,2608.000,0.300,368.000,0.500,425.000,1.000,183.000,5.000,0
"03/08/08","16:02:44",15449.000,"cc",28332.647,6.00,6,0.100,11746.000,0.200,2746.000,0.300,362.000,0.500,412.000,1.000,183.000,5.000,0
"03/08/08","16:02:50",15334.000,"cc",28283.914,6.00,6,0.100,11715.000,0.200,2703.000,0.300,370.000,0.500,384.000,1.000,162.000,5.000,0
"03/08/08","16:02:56",15221.000,"cc",28311.941,6.00,6,0.100,11674.000,0.200,2634.000,0.300,355.000,0.500,385.000,1.000,173.000,5.000,0
"03/08/08","16:03:02",15288.000,"cc",28330.459,6.00,6,0.100,11527.000,0.200,2796.000,0.300,386.000,0.500,401.000,1.000,178.000,5.000,0
"03/08/08","16:03:08",15434.000,"cc",28264.137,6.00,6,0.100,11837.000,0.200,2658.000,0.300,377.000,0.500,395.000,1.000,167.000,5.000,0
"03/08/08","16:03:14",15224.000,"cc",28327.977,6.00,6,0.100,11505.000,0.200,2758.000,0.300,390.000,0.500,375.000,1.000,196.000,5.000,0
"03/08/08","16:03:20",15398.000,"cc",28305.273,6.00,6,0.100,11658.000,0.200,2749.000,0.300,409.000,0.500,391.000,1.000,191.000,5.000,0
"03/08/08","16:03:26",15115.000,"cc",28329.457,6.00,6,0.100,11498.000,0.200,2707.000,0.300,357.000,0.500,373.000,1.000,180.000,5.000,0
"03/08/08","16:03:32",15389.000,"cc",28326.424,6.00,6,0.100,11754.000,0.200,2719.000,0.300,353.000,0.500,386.000,1.000,177.000,5.000,0
"03/08/08","16:03:38",15400.000,"cc",28346.959,6.00,6,0.100,11747.000,0.200,2673.000,0.300,387.000,0.500,419.000,1.000,174.000,5.000,0
"03/08/08","16:03:44",15291.000,"cc",28323.238,6.00,6,0.100,11550.000,0.200,2824.000,0.300,368.000,0.500,389.000,1.000,160.000,5.000,0
"03/08/08","16:03:50",15121.000,"cc",28293.115,6.00,6,0.100,11479.000,0.200,2726.000,0.300,351.000,0.500,377.000,1.000,188.000,5.000,0
"03/08/08","16:03:56",15203.000,"cc",28299.068,6.00,6,0.100,11552.000,0.200,2699.000,0.300,382.000,0.500,365.000,1.000,205.000,5.000,0
"03/08/08","16:04:02",15176.000,"cc",28370.678,6.00,6,0.100,11590.000,0.200,2677.000,0.300,371.000,0.500,373.000,1.000,165.000,5.000,0
"03/08/08","16:04:08",15367.000,"cc",28319.342,6.00,6,0.100,11666.000,0.200,2781.000,0.300,338.000,0.500,396.000,1.000,186.000,5.000,0
"03/08/08","16:04:14",15117.000,"cc",28311.813,6.00,6,0.100,11575.000,0.200,2622.000,0.300,351.000,0.500,395.000,1.000,174.000,5.000,0
"03/08/08","16:04:20",15152.000,"cc",28304.107,6.00,6,0.100,11534.000,0.200,2728.000,0.300,333.000,0.500,394.000,1.000,163.000,5.000,0
"03/08/08","16:04:26",14996.000,"cc",28327.930,6.00,6,0.100,11465.000,0.200,2644.000,0.300,330.000,0.500,371.000,1.000,186.000,5.000,0
"03/08/08","16:04:32",15049.000,"cc",28285.063,6.00,6,0.100,11506.000,0.200,2746.000,0.300,309.000,0.500,329.000,1.000,159.000,5.000,0
"03/08/08","16:04:38",15232.000,"cc",28341.279,6.00,6,0.100,11595.000,0.200,2714.000,0.300,372.000,0.500,369.000,1.000,182.000,5.000,0
"03/08/08","16:04:44",15340.000,"cc",28343.344,6.00,6,0.100,11628.000,0.200,2776.000,0.300,398.000,0.500,359.000,1.000,179.000,5.000,0
"03/08/08","16:04:50",15374.000,"cc",28261.586,6.00,6,0.100,11688.000,0.200,2736.000,0.300,381.000,0.500,411.000,1.000,158.000,5.000,0
"03/08/08","16:04:56",15468.000,"cc",28311.834,6.00,6,0.100,11693.000,0.200,2812.000,0.300,384.000,0.500,408.000,1.000,171.000,5.000,0
"03/08/08","16:05:02",15164.000,"cc",28354.715,6.00,6,0.100,11513.000,0.200,2753.000,0.300,344.000,0.500,376.000,1.000,178.000,5.000,0
"03/08/08","16:05:08",15096.000,"cc",28303.631,6.00,6,0.100,11525.000,0.200,2655.000,0.300,360.000,0.500,358.000,1.000,198.000,5.000,0
"03/08/08","16:05:14",15129.000,"cc",28342.475,6.00,6,0.100,11551.000,0.200,2726.000,0.300,333.000,0.500,348.000,1.000,171.000,5.000,0
"03/08/08","16:05:20",15121.000,"cc",28275.713,6.00,6,0.100,11562.000,0.200,2647.000,0.300,355.000,0.500,388.000,1.000,169.000,5.000,0
"03/08/08","16:05:26",15154.000,"cc",28323.522,6.00,6,0.100,11500.000,0.200,2722.000,0.300,373.000,0.500,375.000,1.000,184.000,5.000,0
"03/08/08","16:05:32",15370.000,"cc",28278.065,6.00,6,0.100,11761.000,0.200,2701.000,0.300,384.000,0.500,362.000,1.000,162.000,5.000,0
"03/08/08","16:05:38",15240.000,"cc",28302.354,6.00,6,0.100,11638.000,0.200,2686.000,0.300,366.000,0.500,375.000,1.000,175.000,5.000,0
"03/08/08","16:05:44",15438.000,"cc",28277.816,6.00,6,0.100,11705.000,0.200,2773.000,0.300,372.000,0.500,389.000,1.000,199.000,5.000,0
"03/08/08","16:05:50",15486.000,"cc",28332.504,6.00,6,0.100,11789.000,0.200,2709.000,0.300,383.000,0.500,412.000,1.000,193.000,5.000,0
"03/08/08","16:05:56",15494.000,"cc",28381.557,6.00,6,0.100,11738.000,0.200,2837.000,0.300,352.000,0.500,398.000,1.000,169.000,5.000,0
"03/08/08","16:06:02",15286.000,"cc",28315.762,6.00,6,0.100,11654.000,0.200,2742.000,0.300,366.000,0.500,355.000,1.000,169.000,5.000,0
"03/08/08","16:06:08",15367.000,"cc",28340.156,6.00,6,0.100,11719.000,0.200,2728.000,0.300,356.000,0.500,368.000,1.000,196.000,5.000,0
"03/08/08","16:06:14",15132.000,"cc",28295.545,6.00,6,0.100,11498.000,0.200,2718.000,0.300,372.000,0.500,386.000,1.000,158.000,5.000,0
"03/08/08","16:06:20",15310.000,"cc",28333.725,6.00,6,0.100,11665.000,0.200,2730.000,0.300,350.000,0.500,399.000,1.000,166.000,5.000,0
"03/08/08","16:06:26",15189.000,"cc",28343.777,6.00,6,0.100,11556.000,0.200,2688.000,0.300,386.000,0.500,379.000,1.000,180.000,5.000,0
"03/08/08","16:06:32",15585.000,"cc",28185.525,6.00,6,0.100,11903.000,0.200,2777.000,0.300,357.000,0.500,377.000,1.000,171.000,5.000,0
"03/08/08","16:06:38",15265.000,"cc",28246.225,6.00,6,0.100,11544.000,0.200,2710.000,0.300,384.000,0.500,441.000,1.000,186.000,5.000,0
"03/08/08","16:06:44",15508.000,"cc",28377.709,6.00,6,0.100,11766.000,0.200,2777.000,0.300,407.000,0.500,392.000,1.000,166.000,5.000,0
"03/08/08","16:06:50",15455.000,"cc",28307.555,6.00,6,0.100,11667.000,0.200,2821.000,0.300,364.000,0.500,404.000,1.000,199.000,5.000,0
"03/08/08","16:06:56",15220.000,"cc",28351.832,6.00,6,0.100,11628.000,0.200,2712.000,0.300,331.000,0.500,403.000,1.000,146.000,5.000,0
"03/08/08","16:07:02",15315.000,"cc",28350.713,6.00,6,0.100,11522.000,0.200,2800.000,0.300,404.000,0.500,391.000,1.000,198.000,5.000,0
"03/08/08","16:07:08",15225.000,"cc",28362.615,6.00,6,0.100,11464.000,0.200,2790.000,0.300,372.000,0.500,394.000,1.000,205.000,5.000,0
"03/08/08","16:07:14",15422.000,"cc",28286.397,6.00,6,0.100,11722.000,0.200,2778.000,0.300,388.000,0.500,359.000,1.000,175.000,5.000,0
"03/08/08","16:07:20",15257.000,"cc",28298.502,6.00,6,0.100,11621.000,0.200,2707.000,0.300,373.000,0.500,375.000,1.000,181.000,5.000,0
"03/08/08","16:07:26",15278.000,"cc",28277.865,6.00,6,0.100,11562.000,0.200,2765.000,0.300,374.000,0.500,408.000,1.000,169.000,5.000,0
"03/08/08","16:07:32",15207.000,"cc",28351.469,6.00,6,0.100,11598.000,0.200,2624.000,0.300,415.000,0.500,411.000,1.000,159.000,5.000,0
"03/08/08","16:07:38",15268.000,"cc",28297.982,6.00,6,0.100,11498.000,0.200,2821.000,0.300,374.000,0.500,403.000,1.000,172.000,5.000,0
"03/08/08","16:07:44",15426.000,"cc",28288.316,6.00,6,0.100,11667.000,0.200,2765.000,0.300,372.000,0.500,434.000,1.000,188.000,5.000,0
"03/08/08","16:07:50",15509.000,"cc",28349.508,6.00,6,0.100,11789.000,0.200,2724.000,0.300,395.000,0.500,423.000,1.000,178.000,5.000,0
"03/08/08","16:07:56",15206.000,"cc",28362.813,6.00,6,0.100,11546.000,0.200,2701.000,0.300,411.000,0.500,380.000,1.000,168.000,5.000,0
"03/08/08","16:08:02",15376.000,"cc",28324.193,6.00,6,0.100,11694.000,0.200,2737.000,0.300,367.000,0.500,388.000,1.000,190.000,5.000,0
"03/08/08","16:08:08",15305.000,"cc",28338.846,6.00,6,0.100,11561.000,0.200,2751.000,0.300,380.000,0.500,414.000,1.000,199.000,5.000,0
"03/08/08","16:08:14",15199.000,"cc",28283.295,6.00,6,0.100,11641.000,0.200,2562.000,0.300,398.000,0.500,423.000,1.000,175.000,5.000,0
"03/08/08","16:08:20",15024.000,"cc",28301.727,6.00,6,0.100,11444.000,0.200,2651.000,0.300,329.000,0.500,400.000,1.000,200.000,5.000,0
"03/08/08","16:08:26",15380.000,"cc",28310.807,6.00,6,0.100,11631.000,0.200,2821.000,0.300,348.000,0.500,417.000,1.000,163.000,5.000,0
"03/08/08","16:08:32",15553.000,"cc",28295.672,6.00,6,0.100,11868.000,0.200,2737.000,0.300,363.000,0.500,398.000,1.000,187.000,5.000,0
"03/08/08","16:08:38",15311.000,"cc",28331.279,6.00,6,0.100,11577.000,0.200,2785.000,0.300,365.000,0.500,404.000,1.000,180.000,5.000,0
"03/08/08","16:08:44",15415.000,"cc",28310.311,6.00,6,0.100,11713.000,0.200,2782.000,0.300,382.000,0.500,366.000,1.000,172.000,5.000,0
"03/08/08","16:08:50",15559.000,"cc",28307.520,6.00,6,0.100,11745.000,0.200,2790.000,0.300,379.000,0.500,464.000,1.000,181.000,5.000,0
"03/08/08","16:08:56",15512.000,"cc",28321.639,6.00,6,0.100,11753.000,0.200,2780.000,0.300,391.000,0.500,439.000,1.000,149.000,5.000,0
"03/08/08","16:09:02",15616.000,"cc",28261.275,6.00,6,0.100,11806.000,0.200,2812.000,0.300,411.000,0.500,426.000,1.000,161.000,5.000,0
"03/08/08","16:09:08",15415.000,"cc",28338.008,6.00,6,0.100,11677.000,0.200,2817.000,0.300,365.000,0.500,402.000,1.000,154.000,5.000,0
"03/08/08","16:09:14",15492.000,"cc",28308.533,6.00,6,0.100,11725.000,0.200,2754.000,0.300,381.000,0.500,432.000,1.000,200.000,5.000,0
"03/08/08","16:09:20",15412.000,"cc",28251.100,6.00,6,0.100,11598.000,0.200,2799.000,0.300,400.000,0.500,413.000,1.000,202.000,5.000,0
"03/08/08","16:09:26",15569.000,"cc",28363.160,6.00,6,0.100,11743.000,0.200,2877.000,0.300,375.000,0.500,391.000,1.000,183.000,5.000,0
"03/08/08","16:09:32",15610.000,"cc",28348.836,6.00,6,0.100,11806.000,0.200,2839.000,0.300,371.000,0.500,426.000,1.000,168.000,5.000,0
"03/08/08","16:09:38",15620.000,"cc",28298.246,6.00,6,0.100,11865.000,0.200,2809.000,0.300,392.000,0.500,372.000,1.000,182.000,5.000,0
"03/08/08","16:09:44",15748.000,"cc",28283.998,6.00,6,0.100,11886.000,0.200,2866.000,0.300,401.000,0.500,404.000,1.000,191.000,5.000,0
"03/08/08","16:09:50",15754.000,"cc",28279.617,6.00,6,0.100,11996.000,0.200,2846.000,0.300,356.000,0.500,373.000,1.000,183.000,5.000,0
"03/08/08","16:09:56",15901.000,"cc",28345.789,6.00,6,0.100,11963.000,0.200,2923.000,0.300,385.000,0.500,432.000,1.000,198.000,5.000,0
"03/08/08","16:10:02",15648.000,"cc",28370.172,6.00,6,0.100,11866.000,0.200,2800.000,0.300,353.000,0.500,445.000,1.000,184.000,5.000,0
"03/08/08","16:10:08",15565.000,"cc",28287.455,6.00,6,0.100,11758.000,0.200,2854.000,0.300,369.000,0.500,411.000,1.000,173.000,5.000,0
"03/08/08","16:10:14",15622.000,"cc",28317.943,6.00,6,0.100,11863.000,0.200,2804.000,0.300,364.000,0.500,401.000,1.000,190.000,5.000,0
"03/08/08","16:10:20",15598.000,"cc",28383.834,6.00,6,0.100,11744.000,0.200,2872.000,0.300,381.000,0.500,411.000,1.000,190.000,5.000,0
"03/08/08","16:10:26",15734.000,"cc",28323.115,6.00,6,0.100,11949.000,0.200,2827.000,0.300,374.000,0.500,411.000,1.000,173.000,5.000,0
"03/08/08","16:10:32",15751.000,"cc",28289.371,6.00,6,0.100,11942.000,0.200,2823.000,0.300,383.000,0.500,421.000,1.000,182.000,5.000,0
"03/08/08","16:10:38",15718.000,"cc",28249.506,6.00,6,0.100,12014.000,0.200,2771.000,0.300,374.000,0.500,384.000,1.000,175.000,5.000,0
"03/08/08","16:10:44",15788.000,"cc",28435.076,6.00,6,0.100,11845.000,0.200,2863.000,0.300,431.000,0.500,449.000,1.000,200.000,5.000,0
"03/08/08","16:10:50",15615.000,"cc",28301.861,6.00,6,0.100,11679.000,0.200,2889.000,0.300,399.000,0.500,451.000,1.000,197.000,5.000,0
"03/08/08","16:10:56",15642.000,"cc",28306.273,6.00,6,0.100,11827.000,0.200,2834.000,0.300,388.000,0.500,423.000,1.000,170.000,5.000,0
"03/08/08","16:11:02",15800.000,"cc",28282.242,6.00,6,0.100,11899.000,0.200,2873.000,0.300,378.000,0.500,448.000,1.000,202.000,5.000,0
"03/08/08","16:11:08",15798.000,"cc",28340.527,6.00,6,0.100,11982.000,0.200,2802.000,0.300,413.000,0.500,401.000,1.000,200.000,5.000,0
"03/08/08","16:11:14",15489.000,"cc",28344.668,6.00,6,0.100,11642.000,0.200,2891.000,0.300,374.000,0.500,395.000,1.000,187.000,5.000,0
"03/08/08","16:11:20",15768.000,"cc",28291.648,6.00,6,0.100,11739.000,0.200,3008.000,0.300,367.000,0.500,450.000,1.000,204.000,5.000,0
"03/08/08","16:11:26",15488.000,"cc",28298.672,6.00,6,0.100,11641.000,0.200,2831.000,0.300,380.000,0.500,433.000,1.000,203.000,5.000,0
"03/08/08","16:11:32",15589.000,"cc",28296.357,6.00,6,0.100,11823.000,0.200,2799.000,0.300,366.000,0.500,402.000,1.000,199.000,5.000,0
"03/08/08","16:11:38",15780.000,"cc",28321.441,6.00,6,0.100,11903.000,0.200,2824.000,0.300,396.000,0.500,446.000,1.000,211.000,5.000,0
"03/08/08","16:11:44",15530.000,"cc",28316.217,6.00,6,0.100,11802.000,0.200,2778.000,0.300,388.000,0.500,372.000,1.000,190.000,5.000,0
"03/08/08","16:11:50",15808.000,"cc",28342.758,6.00,6,0.100,11963.000,0.200,2822.000,0.300,383.000,0.500,460.000,1.000,180.000,5.000,0
"03/08/08","16:11:56",15677.000,"cc",28312.637,6.00,6,0.100,11778.000,0.200,2874.000,0.300,365.000,0.500,436.000,1.000,224.000,5.000,0
"03/08/08","16:12:02",15566.000,"cc",28305.342,6.00,6,0.100,11787.000,0.200,2812.000,0.300,369.000,0.500,396.000,1.000,202.000,5.000,0
"03/08/08","16:12:08",15668.000,"cc",28360.039,6.00,6,0.100,11807.000,0.200,2866.000,0.300,387.000,0.500,443.000,1.000,165.000,5.000,0
"03/08/08","16:12:14",15549.000,"cc",28348.268,6.00,6,0.100,11723.000,0.200,2834.000,0.300,367.000,0.500,423.000,1.000,202.000,5.000,0
"03/08/08","16:12:20",15762.000,"cc",28276.619,6.00,6,0.100,11855.000,0.200,2857.000,0.300,421.000,0.500,421.000,1.000,208.000,5.000,0
"03/08/08","16:12:26",15576.000,"cc",28284.330,6.00,6,0.100,11763.000,0.200,2768.000,0.300,406.000,0.500,439.000,1.000,200.000,5.000,0
"03/08/08","16:12:32",16057.000,"cc",28334.154,6.00,6,0.100,12186.000,0.200,2882.000,0.300,382.000,0.500,419.000,1.000,188.000,5.000,0
"03/08/08","16:12:38",15495.000,"cc",28371.580,6.00,6,0.100,11773.000,0.200,2762.000,0.300,388.000,0.500,399.000,1.000,173.000,5.000,0
"03/08/08","16:12:44",15494.000,"cc",28273.779,6.00,6,0.100,11652.000,0.200,2827.000,0.300,380.000,0.500,413.000,1.000,222.000,5.000,0
"03/08/08","16:12:50",15701.000,"cc",28297.856,6.00,6,0.100,11887.000,0.200,2806.000,0.300,368.000,0.500,438.000,1.000,202.000,5.000,0
"03/08/08","16:12:56",15667.000,"cc",28336.322,6.00,6,0.100,11866.000,0.200,2808.000,0.300,360.000,0.500,443.000,1.000,190.000,5.000,0
"03/08/08","16:13:02",15759.000,"cc",28375.758,6.00,6,0.100,11941.000,0.200,2803.000,0.300,380.000,0.500,426.000,1.000,209.000,5.000,0
"03/08/08","16:13:08",15709.000,"cc",28283.061,6.00,6,0.100,11774.000,0.200,2887.000,0.300,413.000,0.500,428.000,1.000,207.000,5.000,0
"03/08/08","16:13:14",15673.000,"cc",28316.152,6.00,6,0.100,11842.000,0.200,2847.000,0.300,397.000,0.500,408.000,1.000,179.000,5.000,0
"03/08/08","16:13:20",15619.000,"cc",28331.631,6.00,6,0.100,11758.000,0.200,2835.000,0.300,364.000,0.500,472.000,1.000,190.000,5.000,0
"03/08/08","16:13:26",15654.000,"cc",28286.059,6.00,6,0.100,11820.000,0.200,2853.000,0.300,402.000,0.500,400.000,1.000,179.000,5.000,0
"03/08/08","16:13:32",15702.000,"cc",28317.920,6.00,6,0.100,11800.000,0.200,2944.000,0.300,362.000,0.500,408.000,1.000,188.000,5.000,0
"03/08/08","16:13:38",15531.000,"cc",28346.268,6.00,6,0.100,11840.000,0.200,2768.000,0.300,352.000,0.500,384.000,1.000,187.000,5.000,0
"03/08/08","16:13:44",16030.000,"cc",28306.373,6.00,6,0.100,12124.000,0.200,2918.000,0.300,394.000,0.500,393.000,1.000,201.000,5.000,0
"03/08/08","16:13:50",15954.000,"cc",28311.523,6.00,6,0.100,11982.000,0.200,2925.000,0.300,407.000,0.500,448.000,1.000,192.000,5.000,0
"03/08/08","16:13:56",15663.000,"cc",28348.510,6.00,6,0.100,11765.000,0.200,2837.000,0.300,408.000,0.500,451.000,1.000,202.000,5.000,0
"03/08/08","16:14:02",16154.000,"cc",28347.412,6.00,6,0.100,12134.000,0.200,2993.000,0.300,405.000,0.500,430.000,1.000,192.000,5.000,0
"03/08/08","16:14:08",15944.000,"cc",28304.918,6.00,6,0.100,12023.000,0.200,2926.000,0.300,372.000,0.500,417.000,1.000,206.000,5.000,0
"03/08/08","16:14:14",15886.000,"cc",28309.883,6.00,6,0.100,11961.000,0.200,2886.000,0.300,400.000,0.500,417.000,1.000,222.000,5.000,0
"03/08/08","16:14:20",16009.000,"cc",28233.906,6.00,6,0.100,12002.000,0.200,2970.000,0.300,382.000,0.500,446.000,1.000,209.000,5.000,0
"03/08/08","16:14:26",15904.000,"cc",28352.988,6.00,6,0.100,12089.000,0.200,2820.000,0.300,384.000,0.500,403.000,1.000,208.000,5.000,0
"03/08/08","16:14:32",16154.000,"cc",28297.334,6.00,6,0.100,12200.000,0.200,2919.000,0.300,383.000,0.500,440.000,1.000,212.000,5.000,0
"03/08/08","16:14:38",15918.000,"cc",28379.330,6.00,6,0.100,12082.000,0.200,2810.000,0.300,381.000,0.500,443.000,1.000,202.000,5.000,0
"03/08/08","16:14:44",15617.000,"cc",28327.559,6.00,6,0.100,11771.000,0.200,2839.000,0.300,352.000,0.500,410.000,1.000,245.000,5.000,0
"03/08/08","16:14:50",15850.000,"cc",28275.570,6.00,6,0.100,11944.000,0.200,2917.000,0.300,366.000,0.500,416.000,1.000,207.000,5.000,0
"03/08/08","16:14:56",15814.000,"cc",28310.815,6.00,6,0.100,11981.000,0.200,2850.000,0.300,375.000,0.500,395.000,1.000,213.000,5.000,0
"03/08/08","16:15:02",15979.000,"cc",28333.617,6.00,6,0.100,12092.000,0.200,2881.000,0.300,383.000,0.500,420.000,1.000,203.000,5.000,0
"03/08/08","16:15:08",15883.000,"cc",28323.070,6.00,6,0.100,11979.000,0.200,2973.000,0.300,363.000,0.500,376.000,1.000,192.000,5.000,0
"03/08/08","16:15:14",15834.000,"cc",28330.619,6.00,6,0.100,11948.000,0.200,2852.000,0.300,371.000,0.500,422.000,1.000,241.000,5.000,0
"03/08/08","16:15:20",15994.000,"cc",28311.703,6.00,6,0.100,12043.000,0.200,2935.000,0.300,364.000,0.500,454.000,1.000,198.000,5.000,0
"03/08/08","16:15:26",15898.000,"cc",28278.813,6.00,6,0.100,11920.000,0.200,2989.000,0.300,366.000,0.500,393.000,1.000,230.000,5.000,0
"03/08/08","16:15:32",15964.000,"cc",28328.494,6.00,6,0.100,11933.000,0.200,2983.000,0.300,382.000,0.500,429.000,1.000,237.000,5.000,0
"03/08/08","16:15:38",15993.000,"cc",28321.328,6.00,6,0.100,12036.000,0.200,2949.000,0.300,371.000,0.500,423.000,1.000,214.000,5.000,0
"03/08/08","16:15:44",16101.000,"cc",28288.104,6.00,6,0.100,12147.000,0.200,2846.000,0.300,407.000,0.500,465.000,1.000,236.000,5.000,0
"03/08/08","16:15:50",16318.000,"cc",28330.760,6.00,6,0.100,12230.000,0.200,3000.000,0.300,408.000,0.500,446.000,1.000,234.000,5.000,0
"03/08/08","16:15:56",15744.000,"cc",28362.008,6.00,6,0.100,11867.000,0.200,2864.000,0.300,357.000,0.500,429.000,1.000,227.000,5.000,0
"03/08/08","16:16:02",15687.000,"cc",28254.469,6.00,6,0.100,11831.000,0.200,2875.000,0.300,360.000,0.500,418.000,1.000,203.000,5.000,0
"03/08/08","16:16:08",16104.000,"cc",28338.529,6.00,6,0.100,12207.000,0.200,2867.000,0.300,364.000,0.500,463.000,1.000,203.000,5.000,0
"03/08/08","16:16:14",16197.000,"cc",28331.328,6.00,6,0.100,12173.000,0.200,3003.000,0.300,381.000,0.500,422.000,1.000,218.000,5.000,0
"03/08/08","16:16:20",16332.000,"cc",28323.102,6.00,6,0.100,12339.000,0.200,2954.000,0.300,392.000,0.500,422.000,1.000,225.000,5.000,0
"03/08/08","16:16:26",16092.000,"cc",28291.986,6.00,6,0.100,12003.000,0.200,3011.000,0.300,379.000,0.500,476.000,1.000,223.000,5.000,0
"03/08/08","16:16:32",15994.000,"cc",28299.266,6.00,6,0.100,11957.000,0.200,2939.000,0.300,376.000,0.500,478.000,1.000,244.000,5.000,0
"03/08/08","16:16:38",15786.000,"cc",28370.057,6.00,6,0.100,11884.000,0.200,2948.000,0.300,367.000,0.500,397.000,1.000,190.000,5.000,0